TIME,DELAY(SENSOR),PRES,OXYGEN,RAWTEMP,T(OPTODE),TCPHASE,FLUOR,BETA(BETA700),BETA(BETA412),BETA(BETA440),CDOM,C(CSC),ED(ED411.90),ED(ED443.80),ED(ED489.40),ED(ED554.70),LU(LU412.20),LU(LU443.80),LU(LU489.40),LU(LU555.00),COMP,TILTX,TILTY,CHECK
1377209250,5808,894.4500122070312000,125.6043014526367200,431.5557861328125000,9.6386184692382810,42.4042701721191400,87,2027,50,52,57,10350,2146962898,2147512740,2147290505,2147495725,2147084781,2146933284,2147703140,2147126198,2892,-1,9,1729
1377212846,5807,1019.5000000000000000,166.9962005615234400,517.3811035156250000,6.9892330169677730,40.4210815429687500,91,2130,48,51,58,10349,2146966144,2147515501,2147298441,2147514678,2147084617,2146924882,2147727268,2147123830,2858,-1,9,35670
1377216446,5807,1050.4699707031250000,176.6685028076172000,536.0557250976562000,6.4063720703125000,40.0632514953613300,89,2126,50,52,57,10346,2146963776,2147517595,2147302345,2147518244,2147082459,2146923922,2147727323,2147122285,385,0,9,6125
1377220046,5806,1052.5100097656250000,187.2404937744140600,536.4752197265625000,6.3932528495788570,39.3579483032226560,89,2120,48,51,57,10341,2146964361,2147519990,2147304429,2147517942,2147085860,2146924763,2147723830,2147121280,721,-1,8,55189
1377223646,5808,1056.6400146484375000,179.6811065673828000,538.3447265625000000,6.3347530364990230,39.8978996276855500,90,2121,50,52,57,10342,2146963410,2147517366,2147304045,2147518070,2147085312,2146917421,2147726628,2147122185,325,-1,8,49327
1377227246,5804,1059.0300292968750000,156.6996002197265600,535.8651733398438000,6.4123311042785645,41.5160598754882800,90,2116,50,50,57,10338,2146967076,2147518747,2147303149,2147516745,2147086738,2146918363,2147722834,2147119442,3381,-1,8,17051
1377230846,5807,1058.6600341796875000,140.2391967773437500,536.1312255859375000,6.4040131568908690,42.8384208679199200,89,2117,50,52,56,10333,2146965577,2147520877,2147301348,2147516525,2147085705,2146918994,2147725961,2147122843,259,0,8,16450
1377234446,5806,1061.3000488281250000,159.9514007568359400,535.8712768554688000,6.4121398925781250,41.2690696716308600,89,2119,50,52,57,10335,2146962157,2147518912,2147304466,2147518116,2147088018,2146917385,2147720576,2147121536,237,0,8,52497
1377238046,5806,1051.0400390625000000,155.6213989257812500,527.7224731445312000,6.6667799949646000,41.4569282531738300,89,2125,49,51,56,10334,2146963419,2147518811,2147300096,2147512832,2147086665,2146919469,2147724964,2147123483,3171,-1,9,45342
1377241646,5804,1047.7900390625000000,149.6986999511718800,528.0565795898438000,6.6563491821289060,41.9257812500000000,91,2133,50,52,58,10333,2146962788,2147517504,2147300516,2147516699,2147084388,2146920941,2147723099,2147121508,3541,0,9,54662
1377245246,5807,1048.5500488281250000,135.4571075439453000,528.0313110351562000,6.6571431159973145,43.1041488647460940,89,2148,49,52,57,10332,2146961773,2147518848,2147299657,2147515254,2147084132,2146916708,2147719149,2147121654,3462,-1,9,8834
1377248846,5805,1022.3599853515625000,154.4911041259765600,520.9218139648438000,6.8789181709289550,41.4253501892089840,90,2161,50,51,57,10314,2146963062,2147515995,2147298806,2147515273,2147083309,2146918546,2147722450,2147125046,3268,-1,9,59661
1377252446,5805,1024.0600585937500000,172.4201049804687500,520.4813842773438000,6.8926448822021480,40.0846786499023440,90,2172,49,50,56,10309,2146967094,2147516745,2147302528,2147515437,2147085330,2146916269,2147724050,2147121846,3177,-1,8,17560
1377256046,5805,1028.3100585937500000,156.2675018310547000,518.5231933593750000,6.9536590576171875,41.2461585998535160,91,2178,49,51,58,10309,2146963538,2147518180,2147300873,2147510482,2147085129,2146918610,2147721746,2147121828,646,-1,8,13642
1377259646,5806,1029.7399902343750000,185.7082977294922000,517.2802124023438000,6.9923758506774900,39.1164894104003900,90,2189,50,50,56,10306,2146962642,2147522797,2147299492,2147512274,2147085686,2146917613,2147724635,2147121728,3507,-1,9,57122
1377263246,5808,1033.2099609375000000,171.7180023193359400,516.9154052734375000,7.0037360191345215,40.0718383789062500,91,2191,49,51,57,10306,2146963602,2147520310,2147299428,2147514916,2147082852,2146927259,2147721728,2147122578,248,-1,8,51804
1377266846,5805,1031.4799804687500000,183.1349945068359400,517.0302734375000000,7.0001578330993650,39.2845802307128900,91,2197,49,50,56,10289,2146963712,2147515401,2147301522,2147514221,2147083547,2146917321,2147720731,2147120749,722,-1,8,37122
1377270446,5807,1034.0500488281250000,177.6058044433593800,516.7371826171875000,7.0092849731445310,39.6558799743652340,91,2200,50,50,56,10275,2146966482,2147517842,2147297947,2147514413,2147083739,2146922587,2147718573,2147122011,714,-1,8,17724
1377274046,5810,1014.4000244140625000,165.7037048339843800,509.6806945800781000,7.2288451194763180,40.3808288574218750,90,2213,49,52,57,10278,2146963501,2147517979,2147301696,2147511314,2147086061,2146918281,2147713426,2147120768,29,-1,8,26182
1377277646,5806,1016.9000244140625000,164.1336975097656200,508.8916015625000000,7.2533731460571290,40.4835815429687500,91,2211,48,52,57,10278,2146965238,2147520713,2147299602,2147511323,2147083538,2146917723,2147717485,2147121408,3572,-1,9,30870
1377281246,5809,1016.1799926757812000,116.6623992919921900,508.7973022460937500,7.2563061714172360,44.4877281188964840,90,2219,49,52,56,10278,2146965001,2147520000,2147297673,2147513609,2147082715,2146924891,2147720457,2147123291,40,-1,8,55499
1377284846,5805,1014.9500122070312000,148.3912963867187500,508.4161987304687500,7.2681488990783690,41.6925392150878900,91,2219,50,52,56,10273,2146963291,2147514212,2147298770,2147513526,2147085430,2146926400,2147715318,2147124086,3111,-1,9,49102
1377288446,5805,1011.4199829101562000,147.3468017578125000,509.1477050781250000,7.2454118728637695,41.7888908386230500,91,2223,49,50,56,10262,2146963190,2147520201,2147297298,2147513536,2147085622,2146921170,2147721728,2147125961,301,-1,8,55435
1377292046,5807,1020.4600219726562000,150.1020050048828000,508.4327087402344000,7.2676358222961430,41.5560913085937500,92,2220,50,51,57,10277,2146963501,2147518829,2147299254,2147516434,2147084032,2146924242,2147719286,2147123026,3513,-1,8,1960
1377295646,5806,1022.3599853515625000,167.7832031250000000,506.3775024414062500,7.3315019607543945,40.1709403991699200,93,2221,50,51,57,10274,2146966994,2147524644,2147299510,2147509952,2147087140,2146919990,2147714852,2147122934,3142,-1,8,47442
1377299246,5807,1022.5900268554688000,176.8274993896484400,505.1781921386719000,7.3687539100646970,39.5073814392089840,91,2224,48,51,56,10272,2146965266,2147518948,2147300900,2147514020,2147084416,2146920667,2147719561,2147121069,2445,-1,9,65126
1377302846,5805,1023.0399780273438000,171.5446929931640600,506.1828918457031000,7.3375458717346190,39.8963394165039060,91,2227,50,50,57,10274,2146965211,2147521920,2147299483,2147513380,2147090550,2146922194,2147719122,2147121280,3400,-1,9,60159
1377306446,5806,1022.2100219726562000,176.2445068359375000,504.7619018554687500,7.3816838264465330,39.5402717590332000,91,2224,50,50,57,10279,2146964141,2147517686,2147297161,2147513005,2147085750,2146920000,2147716992,2147123145,2759,-1,9,13201
1377310046,5806,1023.2500000000000000,170.3403930664062500,505.8976135253906000,7.3464078903198240,39.9775886535644500,92,2232,49,52,58,10188,2146966720,2147516470,2147294674,2147512036,2147088822,2146923657,2147715538,2147120283,3425,-1,8,19556
1377313646,5809,1028.2500000000000000,173.5422058105468800,505.7130126953125000,7.3521418571472170,39.7460517883300800,91,2233,49,52,57,10184,2146965229,2147518509,2147300224,2147510848,2147085403,2146919414,2147715766,2147123803,51,-1,8,32525
1377317246,5808,1023.2100219726562000,174.1286010742187500,505.5805969238281000,7.3562569618225100,39.7024497985839840,91,2241,49,51,57,10188,2146962861,2147518116,2147294390,2147510601,2147087113,2146919213,2147719524,2147120000,3210,-1,8,55087
1377320846,5806,1027.7099609375000000,179.0605010986328000,503.0665893554687500,7.4343237876892090,39.3157691955566400,91,2241,49,51,57,10161,2146965339,2147519835,2147299492,2147510930,2147087341,2146919744,2147721298,2147125330,381,-1,8,58130
1377324446,5806,1024.0600585937500000,171.1477966308593800,505.7803039550781000,7.3500528335571290,39.9184494018554700,92,2253,50,51,57,10149,2146959241,2147518729,2147299977,2147513508,2147084251,2146928320,2147716708,2147123456,111,-1,8,11181
1377328046,5807,1022.2100219726562000,154.3657989501953000,506.5300903320312500,7.3267598152160645,41.1860084533691400,92,2254,49,51,56,10147,2146966390,2147519853,2147299309,2147511670,2147088137,2146919067,2147714971,2147123675,3361,-1,9,22188
1377331646,5806,1024.2500000000000000,154.3094024658203000,507.0387878417969000,7.3109540939331055,41.1991310119628900,93,2258,51,52,57,10148,2146962240,2147517129,2147296630,2147513472,2147087049,2146923163,2147715081,2147121654,2904,-1,8,38072
1377335246,5807,1021.9099731445312000,177.2913970947265600,507.2994079589844000,7.3028578758239750,39.5112113952636700,93,2260,49,51,57,10146,2146964123,2147518061,2147298880,2147510966,2147085403,2146921590,2147722651,2147120338,3502,-1,9,34013
1377338846,5804,1019.4099731445312000,179.1452026367187500,508.7221069335937500,7.2586441040039060,39.4088783264160160,92,2265,49,51,57,10145,2146966966,2147520027,2147296585,2147511744,2147087122,2146920438,2147719954,2147121033,3411,-1,8,20020
1377342446,5806,1024.0799560546875000,185.3706970214843800,507.7390136718750000,7.2891979217529300,38.9715003967285160,93,2262,49,52,57,10139,2146965723,2147516452,2147299821,2147512822,2147086765,2146916470,2147721234,2147121179,164,-1,8,36370
1377346046,5805,1026.8800048828125000,189.6670989990234400,507.1502075195312500,7.3074941635131840,38.6782913208007800,92,2265,49,52,56,10141,2146965632,2147517540,2147303232,2147511634,2147086464,2146921755,2147714944,2147123264,738,-1,8,16669
1377349646,5808,1028.0999755859375000,188.9095001220703000,506.3219909667969000,7.3332247734069820,38.7134399414062500,93,2258,49,50,57,10139,2146963254,2147520822,2147297252,2147509933,2147084544,2146920813,2147720082,2147121133,1136,-1,9,39282
1377351056,5808,1026.0999755859375000,188.2086944580078000,506.5793151855469000,7.3252329826354980,38.7632102966308600,92,2262,50,52,57,10299,2146963364,2147522688,2147299675,2147513289,2147085376,2146915757,2147716141,2147124964,930,-1,8,54526
